Theta_e
340 340 341 345 346 342 342 344 345 346 347 347 347 346 346 347 347 346 345 345 344 344 344 343 344 343 343 342 343 344 345 347 349 349 348 348 346 346 345 345 345 346 346 345 344 345 345 346 345 345 344 345 346 346 346 346 346 344 344 344 343 343 343 342 341 341 341 341 340 339 340 341 341 339 337 337 337 336 337 336 337 333 333 332 333
339 341 341 343 347 341 341 344 343 346 346 346 347 347 346 347 346 345 344 344 343 342 342 342 340 340 340 341 341 341 342 342 344 346 346 346 346 345 345 344 343 342 342 342 344 346 346 346 345 345 345 345 346 345 345 345 344 344 343 343 342 342 341 340 340 339 339 339 339 337 337 337 338 340 337 335 336 336 337 335 334 333 332 334 332
341 340 342 344 345 346 345 344 344 346 348 346 345 346 347 346 345 345 345 345 344 343 340 340 341 341 342 341 341 341 341 341 341 342 343 344 343 343 343 342 342 343 345 345 344 344 343 345 344 345 346 346 345 344 345 344 343 342 342 342 341 340 339 339 338 338 338 338 337 337 337 337 337 338 336 335 336 335 335 332 333 334 331 334 336
339 339 342 345 346 347 346 345 345 346 346 345 346 347 347 345 343 342 342 342 343 342 341 342 342 341 341 341 341 341 341 341 341 341 341 341 342 342 341 341 342 341 342 342 343 343 344 345 345 345 344 344 344 344 343 342 342 341 341 340 339 338 338 337 337 336 336 337 337 336 335 335 335 335 335 335 335 333 335 332 335 335 334 334 334
339 339 341 342 346 347 347 348 347 346 346 346 346 346 346 345 342 341 342 341 342 342 342 342 342 342 340 338 341 341 341 341 341 341 341 341 341 340 341 341 341 340 341 342 342 343 343 343 344 344 343 343 344 343 342 341 341 340 339 338 338 337 337 337 336 336 335 336 337 335 332 332 333 333 334 334 333 332 332 333 333 333 333 333 333
339 340 341 341 345 348 347 347 348 347 345 346 345 346 346 345 343 343 343 340 338 338 343 343 341 340 342 342 341 340 338 339 342 341 340 339 339 343 342 341 342 344 346 346 346 345 344 344 344 343 343 343 342 342 341 341 340 339 338 338 338 337 336 336 336 336 336 336 336 334 332 332 331 331 334 333 333 331 331 333 335 335 332 333 332
339 340 340 341 345 346 346 347 347 346 346 346 346 345 345 344 343 343 342 341 338 337 341 341 341 341 341 342 342 342 341 341 341 339 340 341 342 341 341 342 342 342 342 342 343 343 343 343 343 343 343 342 342 341 341 340 339 339 338 338 337 336 336 335 335 334 337 334 332 332 331 331 331 331 333 333 333 331 335 336 335 334 334 331 330
340 341 340 343 345 346 345 346 346 346 346 346 346 345 345 343 341 340 339 342 342 342 341 339 339 340 341 340 341 341 341 341 341 338 337 339 341 342 342 341 342 345 345 345 345 344 343 342 342 342 343 341 340 340 340 339 339 338 337 337 336 335 335 334 333 334 334 331 333 333 332 332 332 331 332 332 332 331 332 333 334 334 331 329 332
338 339 339 343 346 343 345 345 346 346 346 346 345 344 343 342 341 341 341 340 342 342 339 337 338 340 339 340 339 336 335 336 338 338 338 338 339 340 341 340 340 341 342 343 343 344 343 343 343 342 342 342 341 341 340 339 338 338 337 336 335 334 334 333 332 334 330 330 331 332 332 332 331 331 331 331 330 331 331 329 330 330 330 333 331
337 338 340 343 346 341 344 345 346 346 346 345 344 343 342 341 341 341 339 339 343 342 340 339 340 341 341 337 339 340 340 341 341 340 340 340 340 340 340 340 340 340 340 341 341 342 342 341 341 341 341 341 340 339 338 338 337 336 335 335 334 333 333 332 333 331 330 330 329 330 331 338 331 329 333 334 332 331 330 330 330 333 330 331 330
337 338 342 344 346 342 345 346 346 346 346 344 342 342 342 341 341 340 339 336 336 339 339 338 340 341 340 339 339 340 341 340 340 340 340 340 339 339 339 341 341 341 342 343 343 343 342 341 341 341 340 340 339 338 337 337 336 335 334 334 334 333 333 334 331 330 330 329 328 329 330 334 330 330 331 332 331 329 333 329 329 329 328 328 328
337 340 343 345 345 341 344 345 345 346 346 344 342 341 341 341 340 340 340 337 336 341 341 341 340 338 337 339 339 340 340 340 340 339 338 338 337 337 339 338 339 341 341 341 341 340 341 340 339 339 339 339 338 337 336 336 335 335 334 333 333 333 332 332 330 330 330 329 330 329 330 328 327 326 328 330 329 329 330 328 329 327 328 328 326
337 340 343 344 346 340 343 345 344 345 346 344 342 341 341 341 340 339 340 339 338 341 341 341 339 337 335 335 337 338 338 338 338 338 338 337 336 337 338 338 340 341 341 340 339 339 340 339 339 338 338 338 337 337 336 335 335 334 334 333 332 332 331 330 330 329 329 330 329 330 330 330 329 329 333 333 331 330 328 329 329 329 330 328 328
338 340 342 343 344 343 339 341 343 345 345 345 343 341 341 340 340 339 338 338 342 342 342 342 339 338 335 335 335 336 336 336 336 337 337 337 338 338 338 340 340 340 339 339 338 338 338 338 337 337 337 338 337 336 336 335 335 334 334 333 332 332 329 328 329 329 329 329 330 329 330 329 329 332 332 331 332 329 329 328 326 327 328 328 328
336 340 342 342 342 345 341 339 341 341 343 344 343 341 340 340 339 339 338 342 342 341 340 341 340 338 337 336 336 336 336 337 338 338 338 338 337 337 337 337 338 339 339 339 338 338 338 337 337 337 337 338 337 337 336 335 335 334 333 332 331 329 326 329 329 329 328 329 329 329 329 330 333 331 330 330 330 329 330 328 328 326 326 328 328
338 339 341 341 342 343 345 342 336 337 340 341 342 341 341 340 340 338 337 341 341 339 340 340 340 338 336 336 336 335 337 337 338 337 337 337 336 336 337 337 337 337 337 337 338 337 337 336 336 337 337 337 337 337 336 335 335 334 332 331 329 328 325 326 330 330 328 328 328 329 328 329 332 331 331 331 329 329 328 328 329 329 328 327 326
337 339 339 341 343 341 342 344 340 332 333 334 337 338 340 341 340 341 343 342 343 341 341 341 340 338 337 338 340 340 340 339 339 338 338 339 337 336 336 336 336 337 337 337 338 337 336 336 336 336 335 335 336 336 335 334 333 332 331 329 328 326 324 323 330 329 328 329 329 329 329 330 331 333 331 331 329 329 328 329 330 328 329 328 327
338 338 338 340 341 341 341 343 344 344 344 337 332 336 338 340 340 341 342 343 343 343 342 341 340 340 339 340 340 340 339 338 337 337 337 337 335 337 337 335 335 335 337 336 337 336 336 335 335 335 334 334 334 333 333 332 332 331 329 328 326 324 324 323 331 330 330 330 329 329 329 328 333 333 336 332 332 330 328 329 330 328 329 327 327
335 335 337 337 337 339 338 341 342 343 343 342 341 342 332 336 338 339 339 340 340 340 340 338 338 339 338 337 336 334 333 333 334 335 335 336 334 332 336 336 335 335 336 335 336 335 334 333 333 333 333 332 333 332 332 331 329 329 328 326 323 321 319 326 330 331 330 329 329 329 329 329 332 333 335 334 335 334 330 327 329 328 329 327 326
332 333 333 336 337 336 338 338 340 341 342 342 341 342 333 331 335 336 336 336 336 336 335 334 332 332 332 332 330 334 331 333 327 333 330 333 331 332 332 335 335 335 334 335 335 335 335 333 333 332 332 331 330 329 329 329 328 326 325 323 323 318 331 330 331 330 329 329 330 330 328 331 333 334 334 334 334 334 332 329 328 328 328 330 329
330 331 332 332 336 335 334 335 337 339 340 340 340 341 338 330 331 329 331 332 333 332 330 325 324 324 327 324 329 335 336 336 335 334 328 336 323 327 332 335 335 335 334 334 335 334 334 334 333 332 330 327 325 324 324 326 326 325 322 321 317 330 330 331 330 329 329 329 330 330 328 330 332 334 333 334 335 334 333 329 329 329 329 330 330
327 329 330 332 332 334 334 333 334 337 339 339 340 340 340 336 340 340 340 335 329 327 334 339 337 339 325 334 336 334 334 335 335 335 335 336 332 324 330 334 335 334 335 334 334 334 333 332 331 331 329 327 322 333 330 322 321 322 321 319 329 329 330 330 330 329 330 330 329 329 328 330 331 333 332 334 334 334 332 330 331 332 332 331 331
326 327 328 330 332 333 334 333 333 335 338 338 338 339 338 338 337 337 338 332 336 338 337 337 337 337 337 336 333 334 335 336 335 335 335 320 326 323 327 328 329 329 331 330 331 331 331 330 327 327 326 324 335 332 332 332 332 319 320 329 330 330 330 330 329 329 329 329 328 326 327 329 330 332 333 332 333 334 333 333 334 333 333 332 332
326 327 328 330 331 332 334 334 333 335 336 337 337 336 337 337 336 336 336 336 337 337 336 336 336 336 336 335 333 336 336 335 327 327 330 335 331 320 320 322 323 324 325 330 327 325 324 323 322 322 328 329 332 330 330 331 331 330 330 328 328 329 329 328 327 328 328 329 330 324 325 328 330 331 332 333 333 332 332 333 333 334 333 333 333
328 328 329 328 329 331 332 334 334 335 335 336 334 335 336 336 336 335 335 336 336 336 334 335 336 336 336 334 335 335 334 333 335 334 334 333 333 334 333 334 333 333 325 332 332 333 330 333 332 330 331 332 331 331 330 328 328 329 328 328 329 330 329 329 329 328 329 329 329 322 323 325 328 332 332 332 332 332 332 333 333 334 334 333 333
329 326 327 328 330 330 330 332 333 334 334 334 333 333 335 334 335 335 334 335 336 335 334 334 334 335 334 334 334 334 334 332 333 332 332 332 331 332 331 331 332 332 330 331 331 331 331 331 331 330 330 331 331 330 329 328 329 329 328 330 330 330 330 330 330 330 330 330 330 321 323 324 328 330 331 333 333 332 332 332 333 334 333 333 333
327 327 328 328 329 329 330 331 331 333 334 334 331 331 332 334 334 334 334 333 334 334 333 333 333 334 334 334 332 332 332 332 332 331 331 331 331 330 331 331 331 330 330 330 331 331 330 330 329 330 330 330 330 329 329 330 330 329 330 330 330 330 329 329 329 329 330 330 326 321 323 325 325 327 330 332 332 332 332 331 332 333 333 334 333
328 328 328 328 329 329 330 330 330 330 332 333 332 330 331 331 332 332 332 331 332 333 333 333 335 333 333 332 331 332 330 329 331 331 332 332 330 330 330 330 330 329 330 330 330 330 330 330 330 330 329 329 328 330 330 329 330 330 330 330 330 329 328 328 329 330 330 330 330 325 320 321 322 325 328 329 331 332 333 332 332 333 333 333 333
330 329 329 328 329 330 330 329 330 330 330 331 330 330 331 330 331 331 330 330 331 332 333 334 333 332 333 334 332 331 330 330 331 331 331 332 331 330 330 330 330 330 330 329 330 330 330 329 330 330 330 329 329 330 329 330 330 330 329 329 329 328 329 329 329 330 330 330 330 326 319 320 321 323 325 327 330 331 331 332 332 333 332 333 333
332 331 330 329 330 330 330 329 330 330 330 330 330 330 330 330 331 331 331 330 331 331 332 332 332 333 332 333 333 331 330 330 332 333 332 333 332 332 331 330 330 330 330 330 330 330 329 330 330 331 331 330 330 330 329 330 330 330 330 329 329 328 328 328 329 330 330 330 330 329 319 318 319 321 323 324 327 329 329 330 332 332 332 333 332
333 332 332 331 331 330 330 330 330 330 330 329 330 330 330 330 331 331 331 330 330 331 330 330 332 332 332 333 333 333 332 333 333 334 333 333 333 332 331 331 329 330 330 331 331 331 331 330 331 330 331 330 330 330 329 329 329 329 330 330 329 329 329 330 330 330 329 329 330 329 328 318 319 319 320 322 324 325 327 328 329 331 332 332 332
332 332 333 334 332 330 330 330 330 330 329 329 330 331 330 330 331 331 331 331 331 330 330 331 329 331 332 332 332 333 333 333 334 334 334 333 332 331 332 331 330 331 331 331 331 331 331 331 332 332 331 330 329 329 330 328 328 328 329 329 329 329 329 330 329 329 329 329 328 327 327 326 319 318 319 320 322 322 324 325 326 328 330 331 332
333 334 334 334 332 332 330 330 330 330 329 329 330 331 331 330 330 331 331 331 330 330 331 332 332 333 333 332 333 333 333 334 334 334 333 333 333 332 331 331 332 331 331 331 332 332 331 330 331 330 329 330 329 328 331 328 326 327 328 329 329 329 329 329 329 328 327 327 326 326 326 326 326 319 316 318 319 320 322 323 324 325 326 327 328
333 334 334 333 334 334 333 332 331 330 330 330 331 331 331 331 331 331 331 331 330 330 330 333 333 333 333 333 333 334 333 334 335 334 334 333 333 333 332 331 332 332 331 331 330 330 329 329 329 329 326 327 326 327 327 326 326 327 328 329 329 329 329 329 328 327 327 326 325 326 325 325 324 325 325 318 317 318 318 320 322 322 322 323 324
333 333 333 334 334 334 334 333 331 331 330 329 330 331 332 332 331 331 331 332 331 331 331 333 333 334 334 333 334 333 334 333 334 334 333 333 332 332 331 331 332 332 330 330 330 330 330 329 328 327 327 327 327 327 326 326 325 325 327 328 328 328 329 328 328 328 326 326 325 325 325 325 324 323 323 323 315 313 315 317 320 320 320 321 323
332 333 333 334 333 334 335 334 333 331 331 330 331 331 332 333 332 327 331 332 331 331 331 332 333 334 333 333 334 334 333 334 334 334 333 333 332 331 331 331 333 331 331 330 329 328 329 329 329 328 326 326 326 326 326 325 325 325 327 328 328 328 328 328 328 327 325 326 325 325 324 324 323 321 318 321 321 318 313 315 317 317 317 319 321
332 332 332 333 333 334 334 334 334 334 332 331 331 332 332 333 333 332 331 332 331 332 333 333 334 334 333 332 334 334 334 334 334 334 333 333 331 331 331 333 333 331 330 330 329 329 327 328 327 328 328 325 324 324 324 325 325 326 327 328 329 328 328 328 326 325 326 325 324 324 323 323 323 316 321 320 319 317 314 313 315 315 314 316 319
332 331 332 332 332 332 333 333 334 335 334 333 331 331 332 333 334 334 331 331 332 333 335 335 335 334 333 332 334 334 333 334 334 333 332 333 333 332 332 332 332 331 330 330 329 329 328 328 326 328 327 326 324 324 324 325 326 326 326 327 328 327 327 327 325 321 324 323 323 322 322 322 321 321 320 319 318 315 315 314 313 313 311 314 316
330 331 331 331 332 332 332 332 332 333 334 335 334 332 332 333 333 334 333 331 332 333 334 335 336 336 334 334 335 334 332 334 334 333 332 332 332 333 333 333 332 330 329 328 329 329 329 328 328 327 328 327 326 326 325 325 325 325 325 326 327 326 326 325 325 323 322 323 322 321 323 320 320 319 317 317 314 314 314 314 314 314 314 311 314
330 330 329 330 330 331 331 331 331 332 333 334 334 332 332 330 330 332 331 330 331 330 332 333 334 335 336 335 335 334 333 333 334 333 333 332 332 332 332 333 332 330 328 328 328 328 328 329 329 328 327 326 326 326 326 325 324 324 324 326 326 325 325 323 323 322 323 323 322 321 319 318 316 316 315 313 312 313 312 313 312 312 313 312 312
329 330 330 330 330 330 330 329 331 332 332 331 332 332 329 329 330 330 330 331 330 331 330 331 333 334 334 335 335 334 334 334 333 333 332 330 332 333 333 333 332 330 329 328 329 330 330 330 328 328 326 324 325 325 326 325 322 322 323 323 323 324 323 323 322 322 322 321 321 320 317 314 313 314 313 313 313 313 312 312 311 312 311 312 310
326 328 328 329 330 331 330 330 331 332 332 332 332 332 333 332 330 330 331 331 331 329 329 331 332 333 333 334 335 335 335 335 333 333 333 333 332 332 332 332 332 331 330 330 330 327 331 329 328 325 324 323 323 324 324 324 321 318 317 319 320 321 321 321 321 321 321 321 321 318 315 313 312 312 311 311 310 311 311 310 311 311 311 310 310
327 328 329 330 329 329 330 331 332 332 332 333 333 332 333 334 333 333 332 332 334 334 333 333 334 334 335 336 336 336 335 335 334 333 333 332 332 332 332 332 332 332 331 331 329 328 329 329 328 325 324 322 322 324 323 324 320 321 319 316 314 314 318 319 320 320 319 320 318 316 314 312 311 312 312 309 308 309 310 310 310 310 309 310 309
326 327 328 328 329 329 330 331 332 332 332 332 331 334 334 335 335 335 335 334 332 333 334 335 336 335 335 336 336 336 336 335 336 334 332 333 333 332 332 332 332 332 330 328 328 328 329 328 328 326 326 321 319 319 321 323 322 321 315 315 314 313 311 313 314 317 319 318 315 313 312 310 312 311 309 307 308 308 308 309 309 308 308 309 309
326 327 327 328 328 329 330 331 331 332 332 331 332 333 334 333 334 334 335 334 335 332 332 332 333 333 333 334 333 335 335 335 336 335 333 333 334 334 331 331 331 331 331 330 329 329 330 329 328 327 325 322 321 321 317 318 320 322 319 315 313 312 312 312 312 314 316 316 316 313 311 312 310 307 306 307 308 308 306 306 307 306 307 308 309
324 326 328 328 329 329 330 331 331 332 332 333 333 332 332 331 331 329 326 327 326 326 327 328 330 330 330 332 332 333 334 334 335 336 335 333 334 333 332 331 332 332 331 330 330 330 328 328 328 327 324 323 324 319 317 316 318 320 322 320 319 313 311 313 311 310 315 315 313 312 311 309 306 306 305 305 306 306 306 305 305 304 306 308 309
322 326 327 328 328 329 329 330 330 331 332 332 333 331 331 331 330 329 329 327 326 327 330 331 331 331 331 331 332 333 334 334 334 333 333 333 334 335 334 332 332 331 331 330 329 329 329 328 328 326 324 322 322 320 319 316 317 318 320 320 319 319 317 312 310 309 304 310 311 305 306 307 304 304 303 303 304 304 304 304 305 305 307 308 308
319 323 325 326 327 327 328 329 330 330 331 332 332 331 329 330 330 330 329 328 328 328 330 331 332 331 331 331 332 332 333 334 333 333 333 333 333 334 334 332 331 331 330 329 329 329 329 328 327 326 326 324 323 322 320 318 317 316 318 317 316 315 316 314 314 310 305 299 303 308 310 306 303 302 301 301 302 303 303 303 304 304 305 307 306
316 319 321 323 325 327 327 328 328 329 329 330 330 330 329 329 329 329 328 328 330 330 330 331 330 331 330 330 331 332 332 332 333 334 333 334 333 334 333 332 330 329 328 329 329 328 327 324 322 323 322 322 323 323 321 318 319 316 314 313 313 312 311 311 311 310 305 303 300 300 300 303 303 302 300 301 302 302 302 303 302 303 305 306 304
312 315 318 321 323 325 326 326 327 328 329 329 329 329 329 328 328 328 327 328 328 329 330 330 330 330 329 329 330 330 331 330 331 332 331 332 333 333 332 331 329 329 325 327 324 323 324 323 323 322 322 321 321 321 320 319 319 317 316 314 311 309 308 307 307 305 305 302 297 297 300 297 294 297 301 300 300 300 301 301 301 303 304 305 301
309 311 314 318 320 322 324 324 326 327 328 328 328 327 327 328 328 328 328 328 328 328 327 328 329 328 327 328 328 329 330 330 329 329 331 330 329 329 329 329 328 325 323 324 324 324 324 323 322 322 321 320 319 318 317 318 317 316 316 314 312 310 308 306 306 305 300 300 300 300 300 298 296 296 300 299 299 299 300 300 300 301 302 303 300
Wind_Speed
6 7 7 3 3 5 6 7 7 7 9 9 11 11 12 12 14 14 13 13 14 15 14 14 14 14 13 13 12 13 13 15 17 17 16 16 18 17 17 17 17 17 17 16 16 17 17 17 17 17 18 17 18 18 18 19 19 18 18 18 18 18 18 18 17 16 15 15 16 16 17 16 17 17 17 17 17 16 12 15 11 12 11 14 16
10 8 7 7 2 6 4 7 4 9 9 11 10 11 11 13 14 13 13 14 14 13 14 15 14 13 13 13 12 12 12 13 14 16 16 16 16 15 15 16 16 16 15 15 16 17 17 17 17 17 17 17 17 17 18 18 18 17 17 17 17 17 17 17 16 15 14 14 13 14 16 17 16 16 17 16 16 16 13 15 14 10 10 13 13
9 8 8 6 2 2 7 7 5 8 9 12 11 12 12 13 13 13 13 14 15 15 13 13 14 15 14 13 13 13 13 13 13 13 13 15 14 13 15 17 15 16 17 16 16 16 16 16 16 17 17 17 17 17 17 17 16 17 16 17 17 16 16 16 15 14 12 11 9 8 12 18 18 16 17 16 16 16 13 15 13 13 12 17 17
10 8 8 7 5 6 9 7 7 10 11 10 13 12 12 13 13 13 13 14 14 13 12 14 13 13 14 14 13 13 13 13 13 12 11 12 14 14 15 14 14 14 15 16 16 16 16 17 17 17 17 16 16 17 16 16 16 16 16 16 16 16 16 15 14 13 12 10 8 7 9 10 13 17 16 15 16 16 11 15 18 18 16 16 18
9 8 8 8 8 8 7 7 10 11 13 13 13 13 13 12 13 13 14 14 14 13 12 13 14 13 12 12 14 13 13 13 12 13 12 13 14 14 15 15 14 13 13 15 16 15 16 17 17 16 16 16 16 16 16 16 15 16 16 15 15 15 15 14 12 12 9 8 6 9 9 11 10 14 15 16 17 14 12 14 16 15 13 15 17
8 8 8 7 8 8 6 8 11 12 12 12 13 14 13 13 13 14 14 13 11 11 15 13 12 13 14 13 13 12 12 13 14 12 12 12 13 15 14 13 13 15 17 17 17 16 17 17 16 16 16 15 16 15 15 16 15 15 15 15 15 15 14 13 11 8 6 2 5 8 9 11 9 11 16 15 15 12 12 16 17 16 15 15 14
8 7 7 7 7 7 6 9 12 13 14 13 12 14 14 13 13 14 14 13 12 11 13 13 13 13 13 13 13 14 13 13 13 12 12 13 14 13 14 14 13 12 13 14 15 15 16 16 16 15 15 15 15 15 15 15 15 15 15 15 14 13 13 11 9 8 8 6 8 8 9 11 9 9 16 15 13 13 17 16 16 15 15 13 12
7 6 7 7 6 7 8 11 12 14 13 12 13 14 14 13 13 13 12 14 12 12 12 12 12 12 12 12 13 14 13 13 13 13 11 12 14 15 13 12 15 14 14 15 16 16 16 15 15 15 15 15 15 15 15 15 14 14 14 13 13 12 11 9 7 5 8 9 9 8 8 9 10 9 14 14 14 16 15 14 15 15 14 12 10
7 7 8 7 7 8 7 10 13 14 15 14 14 14 13 13 12 13 13 12 14 12 12 10 12 12 13 13 12 12 11 11 13 12 12 11 12 13 13 13 12 14 14 15 15 16 15 15 15 15 15 15 14 14 14 14 14 14 13 12 12 11 9 8 8 6 9 8 10 9 8 9 10 9 11 15 14 15 15 12 11 14 14 15 16
7 7 8 7 8 7 7 9 12 14 14 13 13 13 13 13 12 13 11 13 14 12 11 11 12 12 11 11 13 13 13 13 12 12 11 11 11 12 13 13 12 12 13 13 14 14 15 15 15 15 14 14 14 13 13 13 13 13 12 12 12 11 9 8 3 10 8 8 10 11 7 8 10 8 15 15 14 14 12 10 11 10 11 16 15
7 7 7 7 10 6 10 11 10 12 14 13 13 13 13 12 12 12 11 9 8 11 11 10 12 12 12 12 11 12 11 12 12 12 11 11 10 11 13 14 13 13 13 14 14 15 15 15 14 14 14 14 13 13 13 12 12 12 12 12 11 11 10 9 6 8 9 9 10 9 8 8 10 9 14 16 15 12 6 10 11 13 11 16 14
8 8 7 8 10 6 9 9 10 13 12 13 13 12 12 11 10 11 11 9 8 13 11 11 12 11 11 12 11 12 12 12 11 11 11 12 11 11 12 12 13 14 14 14 13 14 14 14 13 13 13 13 12 12 12 12 12 12 12 11 10 10 9 9 8 8 8 10 10 9 10 11 10 9 9 9 10 11 14 14 13 12 10 13 13
9 8 7 8 10 8 8 8 9 10 11 13 12 12 11 11 10 10 10 10 10 12 11 10 10 10 9 10 10 12 10 11 10 11 10 10 10 9 11 12 13 14 13 13 13 13 14 13 13 12 12 12 11 11 11 11 11 11 10 10 9 7 6 9 8 8 8 9 9 9 9 9 8 8 15 19 16 15 13 13 15 13 15 13 13
10 8 8 8 9 9 8 9 8 7 10 11 12 11 11 11 11 11 11 10 12 11 11 10 10 11 10 9 10 9 9 9 10 10 11 11 10 10 11 13 13 13 13 13 12 12 12 12 12 12 11 10 10 10 10 9 10 9 9 9 9 7 8 4 7 7 8 8 8 9 9 7 10 14 15 13 12 13 12 13 11 12 13 10 12
9 9 8 9 10 10 10 8 7 7 10 10 10 10 11 11 11 11 10 12 12 11 11 11 10 11 10 10 10 10 10 11 10 11 11 10 10 10 10 10 12 12 13 12 12 11 12 11 11 10 10 9 9 9 9 8 8 8 8 8 8 8 11 6 6 7 6 6 7 8 8 7 12 12 13 12 12 12 12 10 12 10 10 11 11
8 8 8 9 9 10 10 8 7 8 8 7 9 9 9 10 10 10 9 11 11 10 10 11 10 10 9 9 10 10 10 10 10 10 10 10 10 10 9 10 11 11 11 11 11 11 11 11 11 10 9 9 9 8 8 8 8 8 8 8 7 7 8 8 6 7 6 6 6 7 7 7 14 10 11 11 9 9 7 9 11 15 11 9 10
8 8 8 8 8 8 8 9 8 8 7 8 9 9 9 8 8 8 6 6 11 11 10 10 11 11 10 10 12 13 12 11 11 11 10 10 9 9 8 9 9 11 10 10 11 11 11 10 10 10 11 10 10 9 9 8 8 7 7 6 7 6 7 9 6 6 5 5 6 5 6 6 12 12 11 11 8 6 7 10 12 10 12 10 10
9 9 8 8 7 6 6 8 9 9 9 8 9 8 8 8 9 10 10 11 12 12 11 10 8 9 9 9 9 10 10 10 10 10 10 9 7 5 6 9 10 10 10 10 11 11 10 10 10 10 10 11 11 11 10 9 7 7 6 6 6 5 6 8 6 5 5 5 6 5 5 10 12 11 14 10 11 8 4 8 8 8 12 9 10
9 9 8 7 7 6 6 6 5 6 9 7 7 7 8 9 9 10 11 10 10 11 10 9 9 9 9 9 10 9 9 8 8 8 8 7 7 9 9 8 9 9 9 9 9 10 10 10 10 10 10 10 10 10 10 9 8 7 6 5 4 5 6 4 5 5 5 5 5 5 6 10 10 11 11 10 12 11 6 4 6 6 10 7 6
8 8 8 7 6 7 6 6 6 6 6 7 7 8 7 9 9 10 10 11 10 9 10 10 9 9 9 9 9 8 7 7 7 7 8 8 7 7 7 7 8 8 8 8 8 8 10 10 9 9 8 8 8 8 8 8 7 7 5 4 3 8 2 4 4 4 4 4 5 5 8 11 13 13 13 11 10 11 10 5 5 5 6 12 10
6 7 7 7 7 7 8 7 6 6 6 7 7 7 6 8 8 9 10 10 10 10 10 10 9 8 8 8 7 5 5 5 5 6 5 6 7 7 8 8 8 8 7 7 7 7 9 9 8 7 6 5 5 6 7 6 6 5 4 2 6 2 5 4 4 4 4 4 4 5 8 10 12 12 12 12 12 11 11 6 7 8 9 10 13
7 6 7 7 7 7 8 8 6 7 6 6 4 5 5 5 8 7 7 8 8 9 8 7 7 6 6 6 4 4 4 4 5 4 5 5 6 7 8 8 9 9 9 8 8 9 9 7 6 6 5 3 3 1 4 5 5 3 2 3 2 4 4 4 4 4 4 4 5 6 7 9 11 11 11 12 13 11 10 8 10 11 11 10 11
7 6 6 9 7 6 7 7 7 7 6 6 5 5 7 6 6 5 5 6 7 7 6 6 6 6 6 4 4 3 3 3 3 4 4 7 6 7 8 9 9 8 8 8 6 6 5 4 4 4 3 2 2 2 3 2 1 5 5 2 4 4 4 5 4 4 4 4 5 6 7 9 10 10 10 11 13 14 13 12 11 11 12 12 11
7 6 7 7 8 7 8 7 7 7 7 6 6 6 6 5 5 5 5 5 6 5 5 6 5 6 5 4 3 4 3 3 5 4 4 3 5 6 6 7 8 7 3 4 5 5 3 4 3 1 3 0 1 2 2 2 3 4 3 3 4 4 4 5 4 4 4 3 3 4 6 8 10 10 10 11 12 13 14 14 15 14 14 13 12
5 5 5 7 9 8 8 8 8 7 7 5 6 6 5 4 5 5 5 4 5 5 5 6 5 6 5 4 3 4 3 3 3 3 1 2 2 2 3 1 1 2 1 1 0 1 2 1 2 2 0 0 1 2 3 3 3 3 3 4 4 4 5 5 5 5 4 4 4 2 4 8 10 11 12 12 12 12 13 15 15 15 16 15 15
5 6 6 7 9 8 9 9 9 8 7 6 6 5 4 6 5 5 5 4 5 5 5 5 5 5 5 4 4 4 4 3 3 3 2 2 2 1 1 1 1 1 0 0 0 0 0 1 0 1 1 1 2 2 2 3 3 4 4 3 4 5 5 5 6 5 6 5 4 3 5 8 10 12 13 13 13 13 14 14 15 16 15 15 15
6 6 6 6 8 9 9 8 9 9 9 7 6 5 6 6 5 5 6 5 4 5 5 5 5 5 5 5 5 4 4 3 3 3 3 2 2 1 1 1 1 1 0 1 0 0 1 1 1 1 1 1 2 1 2 2 2 3 3 3 3 4 5 5 5 5 5 5 5 3 5 8 10 11 12 13 13 14 14 14 15 16 16 16 15
6 7 7 6 7 9 10 10 9 10 9 8 7 6 6 6 6 5 6 5 5 4 4 4 4 5 5 5 5 4 4 4 3 3 3 2 2 2 1 2 2 1 1 1 1 1 1 1 1 1 2 1 2 2 2 2 2 2 3 4 5 6 6 6 5 4 5 5 5 3 4 6 8 10 12 12 13 13 14 14 15 15 15 16 17
8 8 7 7 8 8 9 10 9 10 8 9 8 7 6 6 6 6 6 5 6 5 4 4 4 4 5 4 5 4 4 4 4 3 3 3 2 2 2 2 1 1 1 2 2 1 1 1 1 1 2 2 2 1 2 3 3 3 3 5 7 6 5 5 5 5 5 5 5 4 4 4 8 9 11 12 13 13 13 14 14 15 15 15 15
11 8 7 7 7 8 9 10 9 8 8 8 7 7 7 7 6 6 5 6 6 5 6 5 5 4 4 5 5 5 4 4 4 3 3 3 2 3 2 2 2 2 2 2 2 1 1 1 2 2 2 2 3 2 3 3 3 5 4 4 4 4 4 4 4 5 5 5 5 5 1 4 5 8 10 11 12 13 14 14 14 15 15 15 15
11 11 9 6 6 8 8 9 9 8 8 8 7 7 7 7 6 5 5 6 6 5 6 6 6 5 4 5 5 5 4 4 4 4 3 3 3 3 3 3 3 3 2 2 1 2 2 2 2 2 2 3 4 3 2 4 5 6 4 4 4 4 4 4 4 5 5 5 5 5 5 2 3 5 8 9 10 11 12 13 14 14 15 15 16
13 12 10 9 8 9 9 9 9 9 9 9 8 7 7 6 6 6 6 7 7 6 5 5 6 6 7 7 6 5 5 4 4 4 4 3 3 3 3 3 3 3 3 3 2 2 2 2 2 2 3 3 4 4 3 4 6 6 5 4 4 5 5 5 5 5 5 5 5 4 4 5 1 2 4 6 9 10 11 12 13 14 14 15 15
11 12 12 11 11 11 9 10 10 10 11 10 8 7 6 6 6 6 6 6 7 7 6 6 5 6 6 8 8 7 6 5 5 5 4 4 4 3 4 4 4 3 3 3 3 3 3 3 3 2 3 4 3 5 3 5 6 6 5 4 4 5 4 5 5 4 5 4 4 4 4 4 4 1 2 2 5 7 10 11 12 13 14 14 15
11 10 13 13 11 8 8 8 10 12 12 9 8 7 7 6 6 6 6 6 6 7 7 6 6 6 6 7 8 8 7 6 5 5 4 4 4 4 4 4 3 3 3 3 3 3 3 3 3 3 3 5 7 5 5 6 6 5 5 4 4 4 4 5 4 3 3 4 4 4 4 4 4 5 5 2 1 5 9 10 11 12 13 14 15
12 12 13 14 14 11 8 8 10 12 12 11 10 8 7 7 6 6 6 7 6 6 6 6 6 6 6 6 7 7 7 7 6 5 5 5 4 4 4 4 4 3 3 3 3 5 4 5 5 6 7 6 5 5 6 6 6 6 5 5 5 5 4 3 2 2 3 4 3 4 3 4 4 5 5 5 3 7 7 9 10 11 12 14 14
16 15 13 12 14 14 11 11 10 12 13 12 12 10 9 8 7 7 6 7 6 6 6 6 6 6 6 6 7 7 7 8 7 6 5 5 5 5 6 6 4 4 4 4 3 4 5 5 5 5 6 6 5 6 6 6 6 5 5 5 5 5 4 3 2 2 3 3 4 3 3 4 5 5 5 6 6 5 6 6 8 9 10 13 14
16 16 15 14 15 15 13 14 13 13 13 13 13 12 11 10 9 9 9 9 8 6 6 6 6 6 6 6 7 7 8 8 7 7 6 6 5 6 5 4 3 4 5 4 5 5 5 5 5 4 5 6 5 6 5 4 4 5 5 6 6 4 3 3 2 2 2 4 3 3 4 4 4 4 5 6 6 6 5 4 5 5 7 13 15
14 15 15 15 15 15 15 14 13 12 11 11 12 12 12 12 11 10 9 9 10 7 6 6 6 5 6 6 7 8 7 8 8 7 7 6 6 5 5 5 5 5 6 5 6 6 5 5 4 3 4 4 4 4 4 4 4 5 5 6 5 4 3 2 2 1 2 3 3 4 4 4 4 5 5 5 6 6 6 6 6 6 10 12 15
13 15 15 14 13 13 11 11 10 14 14 13 12 11 12 12 11 11 10 10 9 8 8 8 8 8 6 6 7 7 7 8 8 8 7 6 6 6 7 8 6 6 6 6 6 7 6 6 6 4 2 3 4 4 4 5 5 5 6 6 4 2 2 1 0 1 3 3 3 2 3 4 4 5 5 5 5 6 6 6 6 6 7 9 11
14 13 15 15 15 15 14 14 14 16 14 14 11 10 9 10 11 11 10 9 8 8 8 8 8 8 8 6 7 7 7 8 8 8 8 7 6 6 8 9 7 6 5 6 6 6 6 7 7 6 5 2 3 4 4 4 5 6 6 5 3 2 1 1 2 2 3 2 3 3 4 4 4 5 5 5 5 6 6 6 7 6 6 7 9
15 16 15 16 16 16 14 16 13 14 12 12 11 11 12 11 11 11 11 10 9 8 8 8 8 8 9 9 7 7 8 8 8 8 8 8 7 7 7 9 8 7 7 7 8 7 6 6 5 3 4 5 4 3 2 2 4 4 2 3 4 2 1 1 3 3 3 2 2 3 4 4 5 5 5 4 4 5 5 6 6 6 7 6 7
16 17 19 18 18 18 17 16 14 14 14 13 12 12 13 12 11 11 10 9 9 10 9 8 9 8 10 11 10 9 9 8 7 8 8 8 7 6 7 9 10 8 8 8 8 7 5 4 3 4 3 4 4 3 2 3 3 2 4 5 4 1 2 2 3 3 3 2 3 4 4 4 5 5 4 3 4 5 5 6 5 6 6 6 7
16 17 17 17 17 17 17 17 15 15 15 14 14 13 13 12 12 10 11 9 9 10 10 9 9 10 11 12 12 9 9 8 8 8 7 8 8 8 8 8 9 6 5 5 4 6 6 8 7 7 5 3 4 3 4 4 5 1 1 4 2 3 4 3 3 3 2 1 3 3 3 3 4 4 3 3 4 5 5 5 6 6 6 6 6
14 14 14 16 14 15 16 16 15 15 15 15 13 15 15 14 14 14 13 12 9 10 11 12 13 14 14 14 13 12 10 9 11 11 8 9 9 8 8 8 8 6 6 7 8 8 10 8 6 8 7 6 3 3 2 4 4 3 4 1 4 2 3 4 1 2 1 1 2 2 2 2 3 3 2 4 4 4 5 5 6 6 6 6 6
14 14 15 15 13 18 18 17 14 14 14 15 17 16 14 13 12 11 11 10 9 9 10 12 13 11 10 10 12 10 11 11 10 10 9 10 9 8 7 8 9 8 8 9 10 9 9 8 8 8 7 7 5 3 2 2 4 3 4 4 3 4 1 2 4 2 3 3 3 2 1 2 3 4 3 3 4 4 5 5 5 5 5 5 5
14 16 15 17 16 14 14 14 13 13 13 15 15 14 13 13 13 11 13 13 13 11 13 14 10 9 10 8 8 9 10 11 12 12 11 10 10 9 8 9 10 10 10 10 10 9 8 8 8 8 7 8 6 5 3 1 1 2 3 3 4 4 3 2 3 3 3 2 2 2 1 3 3 3 3 4 5 4 4 4 5 5 4 5 5
16 13 13 14 15 13 13 15 14 12 12 13 15 13 15 14 16 16 14 13 14 10 10 11 10 9 8 9 9 9 11 12 12 12 11 11 11 10 10 11 10 11 9 8 8 9 8 8 7 7 7 6 5 5 6 5 4 2 3 2 1 2 2 3 2 2 2 3 1 1 1 4 5 4 4 4 4 4 3 3 3 3 3 4 4
12 9 11 11 14 15 14 14 13 12 12 12 14 17 15 15 15 14 11 16 15 14 12 13 12 9 10 11 10 10 11 12 11 11 10 10 10 11 11 9 8 9 9 9 9 8 7 7 7 7 6 6 8 7 6 7 6 5 4 3 2 1 1 3 4 3 3 2 3 2 1 5 7 5 5 5 5 5 4 3 3 4 4 4 5
10 11 11 11 12 12 13 13 13 13 12 14 15 17 16 16 16 15 15 14 14 14 12 12 12 11 12 10 12 11 10 11 10 9 10 12 11 12 11 8 8 9 8 8 8 7 9 7 6 6 7 6 6 6 6 7 7 6 6 4 4 3 2 2 3 4 4 4 3 1 3 4 1 1 5 5 5 4 4 4 4 5 4 4 5
7 8 9 9 11 11 13 15 16 13 12 14 14 17 19 16 16 17 17 15 12 13 13 12 12 11 11 12 11 11 10 9 10 10 6 9 10 10 10 10 9 9 7 7 6 6 6 6 7 7 7 8 5 6 7 6 6 6 6 5 5 4 4 4 5 6 5 6 4 2 1 3 4 1 2 4 6 4 4 4 5 5 4 4 5
6 9 10 10 10 12 13 15 17 13 13 14 15 19 18 17 16 18 18 17 16 14 12 11 9 10 13 13 12 11 9 9 8 8 9 8 7 7 8 9 7 6 7 7 8 8 8 7 7 8 8 9 7 6 6 6 6 6 6 5 6 6 6 6 6 7 6 4 4 4 3 3 4 5 1 3 4 2 1 2 3 3 3 3 4
Wind_Direction
139 132 125 92 295 140 133 104 112 110 107 111 105 112 95 93 91 91 90 87 84 83 81 79 78 74 70 71 74 67 76 78 78 77 74 74 76 77 76 76 77 74 74 74 76 79 79 77 78 76 74 71 69 69 68 67 64 65 66 66 66 65 65 63 59 56 57 58 61 62 59 59 60 58 54 51 49 45 36 36 39 58 53 47 44
148 136 129 128 333 123 117 109 106 109 116 113 111 106 100 91 92 91 88 87 90 88 88 85 84 82 81 77 74 72 73 69 77 74 75 75 75 77 79 79 79 82 85 85 84 80 78 77 75 74 74 74 74 73 71 70 67 68 68 68 67 65 64 61 58 56 58 61 61 62 58 59 59 56 56 52 52 48 44 47 39 48 57 53 59
134 134 127 109 53 104 153 132 128 113 113 115 117 102 93 96 97 95 99 97 86 85 85 86 84 84 79 80 78 74 68 70 73 70 79 77 73 71 75 73 78 83 83 80 77 77 80 79 77 74 72 72 74 73 72 71 71 70 69 68 67 65 62 59 56 51 47 43 56 73 74 62 52 56 55 56 56 52 48 52 46 43 53 47 50
133 129 130 115 85 103 111 116 118 116 117 111 107 110 106 104 99 96 91 91 91 86 82 85 89 86 83 83 84 83 78 75 70 72 79 78 77 76 78 84 81 80 85 86 85 84 82 80 76 74 75 77 78 75 74 73 72 70 69 67 65 64 61 59 55 51 43 28 14 51 56 59 58 56 61 61 57 51 41 53 51 45 42 47 48
129 131 131 137 128 101 111 116 118 128 122 117 118 115 111 109 102 98 92 87 83 88 93 88 88 90 92 93 85 78 80 80 83 83 83 83 83 87 85 84 86 93 95 94 90 86 85 82 81 80 78 78 76 75 73 72 70 69 68 67 65 62 59 56 51 48 38 20 4 47 51 62 63 59 64 58 54 51 41 51 56 54 43 45 50
131 130 132 131 128 119 105 122 125 125 121 121 121 121 115 105 102 100 94 91 94 94 96 97 98 96 91 91 93 96 94 92 82 87 92 96 95 88 91 89 89 89 85 86 90 89 84 83 83 81 80 78 76 73 72 71 69 69 68 66 64 61 57 52 45 27 357 294 62 57 58 61 58 58 52 57 53 40 51 55 56 50 47 38 40
129 130 131 130 133 114 115 122 130 129 126 125 122 116 108 107 106 103 101 100 99 105 97 95 94 95 96 96 101 99 97 94 102 97 102 104 103 93 85 88 86 86 92 92 90 86 84 83 83 81 78 75 73 72 71 69 68 67 66 64 62 60 57 50 38 13 335 46 51 58 61 62 64 60 52 47 48 50 53 50 52 49 46 38 31
127 132 133 132 128 119 120 129 132 131 126 121 111 109 110 107 100 99 98 102 103 97 100 100 98 95 99 92 87 91 93 96 99 103 98 90 95 96 95 89 89 89 85 87 89 88 87 87 84 82 78 77 73 73 72 71 70 68 67 65 63 59 51 41 21 348 21 59 56 52 58 64 67 61 51 58 54 47 39 47 51 50 41 33 33
137 138 134 127 112 99 122 133 134 131 126 118 111 109 108 105 104 101 103 106 106 103 100 98 94 93 95 101 107 103 98 103 96 97 102 105 105 98 93 89 87 89 93 93 90 86 85 86 85 81 79 77 76 73 72 73 73 71 68 66 62 55 47 31 12 359 62 58 59 51 46 59 53 56 51 62 53 45 40 28 46 50 43 44 44
134 139 136 132 124 121 129 134 132 128 125 120 112 110 108 108 107 107 108 108 116 114 101 97 102 100 98 98 91 93 101 94 96 97 95 89 85 92 96 90 81 78 84 86 86 89 86 80 77 78 77 74 74 74 73 72 71 68 64 61 56 49 33 9 0 49 53 61 65 63 40 341 67 62 57 51 44 45 49 33 20 44 35 50 41
139 142 139 125 121 123 132 130 127 127 125 116 112 110 110 112 117 115 110 106 106 102 101 105 102 101 101 101 99 97 92 93 93 91 90 93 98 95 94 89 83 85 87 88 86 83 81 78 76 77 78 79 78 76 74 72 69 66 62 59 52 43 29 352 23 51 55 57 56 55 78 53 52 41 48 49 48 41 71 70 35 38 37 41 34
139 145 139 122 122 122 117 120 131 131 123 116 113 113 114 113 114 117 113 111 116 106 106 107 108 106 104 92 98 104 101 100 101 101 98 96 100 100 96 93 87 79 75 73 78 80 81 80 79 79 80 80 79 76 73 69 66 63 61 55 51 46 24 342 47 53 55 61 58 52 50 52 48 64 59 75 65 42 41 37 35 51 43 37 36
142 144 133 134 130 118 120 122 126 127 123 120 118 118 119 116 112 115 118 119 116 106 112 113 108 98 94 103 95 85 92 90 99 100 95 94 102 106 104 96 88 82 80 79 79 80 80 80 79 78 79 79 78 75 73 69 66 61 58 55 50 40 28 0 53 53 55 54 53 48 48 56 57 51 43 39 34 38 28 38 22 25 24 27 23
147 145 137 131 118 124 123 125 131 127 123 125 123 122 120 114 109 106 110 107 101 104 104 104 106 107 106 101 105 104 106 106 98 95 97 97 96 94 98 94 91 84 79 77 77 80 81 80 79 79 78 75 74 74 73 72 67 61 55 50 43 19 333 64 48 54 55 57 52 45 46 50 40 43 45 38 40 31 36 42 32 25 8 31 17
148 147 139 139 139 133 128 133 132 116 124 125 126 124 119 115 111 111 116 110 111 111 112 118 117 111 119 120 115 112 99 95 96 95 94 99 101 102 98 95 92 89 85 82 80 78 76 76 77 79 78 73 72 71 70 69 66 61 53 46 40 18 350 43 44 56 56 48 48 46 49 58 1 38 27 41 40 38 46 27 32 37 11 25 22
151 149 149 147 141 136 143 128 119 113 108 118 130 123 119 117 117 120 116 120 124 122 120 119 118 118 111 107 115 113 100 97 92 89 93 91 98 99 97 96 97 95 91 85 84 82 83 80 81 78 74 73 70 68 65 63 60 56 51 46 37 19 7 335 55 47 50 42 47 46 50 55 1 13 37 47 40 48 39 28 22 16 11 16 19
151 159 159 146 147 148 141 151 120 108 96 103 113 113 114 114 117 101 88 90 104 113 119 125 123 122 113 90 78 79 78 83 81 76 68 67 78 84 89 95 94 92 87 85 78 80 81 81 77 72 70 69 66 64 61 58 54 51 48 41 31 32 6 329 57 46 39 39 50 32 46 30 349 354 19 35 27 40 29 3 34 18 10 11 13
163 166 166 162 159 157 146 143 146 153 132 111 99 107 107 102 95 95 90 96 102 102 104 107 104 97 94 86 82 85 83 80 77 73 69 62 52 73 100 100 98 91 82 82 81 79 80 82 76 72 70 67 66 64 60 55 52 50 46 35 27 15 2 305 44 43 35 34 41 31 34 3 340 349 339 9 7 38 27 357 30 12 15 24 354
169 174 172 173 171 163 166 157 159 150 156 152 147 108 103 105 105 104 101 97 102 110 109 108 108 103 98 94 95 88 83 79 74 70 72 60 64 76 64 84 99 91 86 87 85 82 81 78 75 71 68 65 63 61 56 51 47 42 35 31 10 348 288 308 34 30 27 34 21 30 23 342 341 346 350 1 4 358 355 1 0 4 353 23 7
170 181 179 182 180 177 176 173 170 174 166 163 158 146 112 113 115 111 109 108 107 108 114 109 105 105 104 113 113 117 115 95 89 88 74 70 53 66 81 92 96 97 99 98 89 84 83 78 74 72 65 62 60 58 53 50 45 41 31 11 348 278 311 29 6 22 14 29 3 28 9 341 346 348 351 350 358 355 353 1 346 351 336 333 350
176 184 186 184 188 190 190 184 179 175 162 171 165 150 109 119 114 111 110 112 113 111 109 115 115 115 123 122 145 146 134 130 148 109 108 72 59 72 78 80 94 93 92 92 83 85 83 76 74 76 71 67 74 83 68 52 51 39 30 3 274 275 28 12 357 11 7 7 355 27 1 337 337 340 342 340 343 354 356 349 339 335 332 331 331
179 180 190 187 187 190 194 197 182 178 170 172 164 154 149 164 144 141 136 125 121 128 145 140 139 135 128 162 159 145 140 142 126 129 107 116 80 59 70 71 65 61 72 76 65 65 68 66 68 68 70 80 227 172 128 119 87 43 48 288 281 25 17 3 1 354 355 2 341 24 347 332 329 327 332 330 332 341 351 342 329 330 320 317 317
177 181 186 191 188 182 187 192 192 185 180 182 179 169 172 170 161 157 147 153 140 158 159 152 168 159 165 168 165 139 136 132 83 48 66 61 74 58 77 78 77 72 76 76 76 71 76 83 70 66 61 266 240 50 42 11 95 170 213 323 18 13 356 355 343 349 342 1 324 37 329 325 325 323 318 323 326 330 334 331 319 320 325 318 307
176 180 177 186 188 187 182 188 190 190 196 186 188 191 188 178 174 169 170 169 168 167 160 167 167 168 171 181 157 130 145 130 104 118 156 154 112 96 85 99 103 86 89 124 120 73 104 115 101 196 198 264 32 14 18 17 3 2 8 359 6 3 357 354 356 346 343 352 330 31 314 315 318 320 321 321 323 325 324 322 323 323 323 320 319
174 166 174 184 189 188 184 186 189 194 206 189 196 197 194 191 186 183 181 179 173 172 170 174 169 169 176 178 140 135 162 158 168 162 174 127 131 143 153 139 108 104 10 89 178 140 225 128 174 217 38 11 4 16 1 360 8 4 12 13 6 6 2 5 358 349 341 339 350 7 300 304 312 319 325 325 324 323 321 321 321 322 321 320 322
155 179 186 182 187 188 187 189 189 196 206 204 205 191 195 203 194 192 192 190 178 181 180 181 177 179 183 168 155 154 170 171 172 178 175 167 171 153 143 145 136 100 16 77 126 301 278 230 222 282 289 333 355 355 356 359 3 2 10 10 1 355 354 353 351 345 341 334 343 14 315 314 319 323 323 323 323 323 323 323 321 320 319 319 321
178 193 181 188 182 186 189 190 194 196 205 208 208 209 212 210 207 200 199 197 192 189 190 190 187 178 179 174 185 181 178 172 171 181 176 184 179 194 178 183 173 140 157 264 137 223 262 266 285 289 314 298 303 317 324 333 337 341 346 342 344 334 337 339 337 339 335 330 330 329 326 326 325 324 323 324 325 326 325 323 322 321 321 320 320
186 185 185 184 185 187 186 191 195 196 200 205 209 212 211 210 210 199 209 194 199 200 196 196 178 183 188 192 204 192 189 185 177 180 169 185 174 198 217 199 196 210 200 262 242 203 216 237 276 306 278 271 290 296 306 300 300 306 325 332 331 327 332 334 332 333 329 325 324 354 1 332 323 322 326 328 330 330 329 328 326 323 324 324 324
196 188 181 188 186 187 188 194 195 198 197 200 208 210 210 212 206 209 208 189 205 206 204 198 196 197 192 198 206 203 196 192 185 182 180 189 165 186 200 205 210 210 211 213 233 218 203 227 233 251 270 292 297 283 311 297 298 321 320 328 331 336 335 330 331 323 320 320 326 354 6 324 321 322 326 330 333 336 336 334 334 333 332 330 328
211 197 185 191 185 188 193 195 196 197 198 201 205 207 208 211 209 205 202 194 207 206 202 207 214 202 199 202 206 215 201 199 189 186 195 189 186 180 200 205 212 201 223 223 200 233 224 214 239 250 265 286 296 316 306 311 317 320 324 322 322 333 322 317 315 316 320 319 321 327 58 329 314 323 328 334 338 339 340 341 343 343 343 341 339
211 213 205 191 184 190 197 197 198 197 200 205 205 207 204 210 209 207 201 203 204 202 205 209 211 213 213 205 211 221 216 212 204 200 207 202 197 200 204 195 211 202 213 236 208 240 248 260 278 294 303 312 311 318 306 311 308 310 318 313 316 311 310 308 311 315 317 325 325 327 326 260 306 314 329 333 336 340 345 348 349 350 351 352 351
213 212 212 209 200 199 199 199 202 196 205 209 206 210 204 207 207 208 206 205 202 205 203 204 203 208 210 208 215 211 222 218 221 216 224 211 210 209 207 209 215 202 205 226 225 226 257 271 264 282 292 289 297 299 293 298 303 303 314 310 306 308 310 316 316 324 324 328 331 334 336 345 287 306 314 327 343 349 351 353 354 356 357 359 359
218 214 212 207 208 206 205 200 202 201 208 210 207 207 201 202 204 207 206 200 205 211 212 206 201 198 196 204 211 213 213 220 213 220 220 224 217 213 218 219 224 220 216 217 242 247 243 242 239 228 252 257 266 286 268 293 304 305 306 312 316 311 311 314 319 324 338 340 347 349 350 355 357 107 165 336 348 357 1 359 359 1 2 2 1
216 215 213 211 206 202 201 206 205 209 211 213 214 206 204 201 202 202 201 197 201 206 215 215 204 201 194 195 203 207 210 213 215 207 218 221 216 221 226 226 221 218 225 210 222 231 246 244 254 235 246 271 285 287 297 302 302 302 303 324 315 311 311 311 324 339 340 1 0 5 2 4 10 14 3 166 122 31 12 6 3 5 4 3 3
216 219 217 215 208 207 199 203 203 213 209 216 218 218 208 204 202 205 202 202 199 204 207 210 208 205 199 194 200 203 207 212 207 210 210 222 217 218 226 234 230 217 223 209 249 260 260 265 264 272 284 285 284 286 281 292 294 297 307 317 313 314 307 306 337 346 5 6 12 12 5 15 14 14 3 1 99 89 29 10 4 6 6 6 7
216 217 220 219 217 214 205 209 201 208 212 214 218 220 216 211 210 211 213 206 208 208 207 205 208 205 198 201 196 203 207 207 203 210 216 215 220 221 231 245 216 225 236 241 246 252 257 263 263 266 280 280 281 282 287 286 290 295 304 309 313 316 311 312 351 1 17 13 23 14 14 25 22 12 356 4 359 39 61 12 1 5 10 9 13
215 216 217 217 221 218 210 216 215 207 211 214 218 221 223 219 215 213 217 213 216 213 212 208 206 202 202 205 196 200 204 204 205 203 218 214 220 228 240 217 216 242 247 244 242 265 281 275 276 263 265 280 287 291 284 281 293 300 303 304 312 311 303 326 350 4 14 21 26 21 21 29 24 1 7 5 4 357 28 21 348 354 27 14 17
218 218 218 218 220 221 221 219 222 218 212 212 214 219 222 224 225 223 215 218 218 223 221 213 212 210 208 208 198 199 202 203 203 200 210 216 217 220 230 225 216 226 235 237 249 264 265 272 282 273 265 265 276 289 297 302 302 304 304 302 303 311 315 339 5 336 21 22 39 25 20 21 17 7 11 5 3 3 0 13 14 34 55 23 20
222 221 221 220 221 222 224 217 217 224 222 217 213 216 222 225 226 224 220 218 219 223 226 227 227 225 219 211 201 203 202 203 200 196 205 205 214 219 226 222 221 239 243 250 251 249 254 258 269 277 252 270 299 303 303 306 304 300 295 295 298 303 324 43 3 49 28 42 42 18 19 17 9 19 12 5 9 5 8 8 15 17 39 41 26
221 222 222 221 222 223 223 226 223 224 224 221 214 213 214 218 221 222 223 215 212 212 217 223 221 227 227 219 209 209 206 203 198 197 204 205 208 213 221 228 226 234 241 243 240 241 239 239 248 264 268 262 268 278 283 299 305 290 285 300 303 315 14 61 116 45 43 68 37 15 21 12 15 15 12 7 15 11 16 14 18 20 22 35 46
223 222 221 220 219 219 217 222 219 218 218 216 214 213 215 219 222 219 219 213 207 206 208 213 219 221 223 226 217 212 210 205 203 197 205 209 215 216 214 225 219 219 230 241 246 249 248 256 262 258 262 265 261 257 262 305 308 286 280 303 310 314 69 203 152 44 56 65 30 15 22 16 13 6 6 6 12 19 20 22 21 23 21 21 31
217 218 220 219 219 218 218 219 219 218 217 214 212 212 213 214 213 218 219 216 205 202 210 210 215 217 219 225 224 210 208 207 201 201 208 209 210 210 211 221 228 225 225 234 235 231 223 210 206 244 236 243 253 237 244 279 268 301 317 319 298 245 116 168 169 35 48 62 13 22 11 18 8 356 358 9 25 27 31 27 27 25 26 26 26
213 213 217 217 218 221 221 221 219 216 216 215 214 213 213 214 212 216 214 222 221 216 211 209 212 217 216 221 226 216 204 209 209 206 209 213 217 215 217 217 218 218 221 222 217 230 229 235 235 245 236 218 255 229 230 228 293 289 275 263 259 317 158 166 197 306 33 52 2 12 7 8 4 346 344 16 28 34 35 31 28 28 27 28 28
213 214 210 214 215 220 219 218 219 217 218 217 211 217 215 215 218 225 225 222 222 219 220 226 228 227 228 226 226 227 218 211 218 220 209 219 214 214 217 218 216 202 219 230 229 229 239 241 228 234 242 242 211 211 204 212 244 260 257 258 316 284 203 145 337 319 153 102 356 331 348 353 345 336 349 29 28 33 36 33 29 30 28 30 28
208 210 208 208 211 214 215 215 216 214 212 213 212 215 215 215 220 223 228 226 223 220 223 226 228 227 226 223 225 220 224 226 215 205 202 212 209 211 213 222 225 218 220 235 242 242 241 236 233 233 221 229 234 185 158 184 214 245 279 282 240 215 117 45 321 164 179 210 183 263 292 322 359 360 7 37 27 33 36 33 30 32 31 32 32
210 212 207 208 210 214 213 212 212 213 212 209 208 211 215 214 214 216 216 217 222 211 214 221 219 216 213 208 201 210 220 225 228 227 216 204 202 201 202 217 226 232 237 241 242 241 238 231 227 220 213 212 219 175 149 145 237 231 253 287 294 321 349 36 294 134 198 200 207 211 182 359 11 16 9 22 29 30 33 25 22 30 36 37 38
218 211 209 214 212 213 210 209 212 215 213 211 204 209 217 216 218 218 214 212 216 218 213 220 221 216 202 205 204 206 222 225 223 221 222 219 211 202 211 227 231 236 230 229 228 228 228 222 217 212 208 199 205 208 178 159 155 183 201 183 341 305 289 277 297 319 224 163 232 31 74 10 4 22 11 6 23 24 21 15 15 10 51 48 46
213 202 210 209 209 212 211 213 216 217 214 208 204 214 218 219 219 217 218 224 221 223 216 221 221 218 212 206 211 216 214 222 223 215 212 214 218 224 225 224 227 231 228 221 222 221 221 210 203 203 200 190 193 215 195 165 192 168 179 171 133 95 148 245 263 268 307 288 172 166 131 21 354 11 6 355 6 6 356 9 16 22 45 49 50
208 206 211 211 213 216 217 218 218 216 215 211 215 215 220 223 221 222 224 225 227 227 225 223 222 212 213 211 214 216 209 210 217 215 206 211 210 222 225 224 222 224 214 222 219 209 206 191 182 185 183 180 190 207 187 189 201 172 161 157 160 168 170 208 213 230 224 228 243 246 325 355 347 23 354 338 348 350 350 5 16 23 33 42 43
210 214 218 210 209 210 213 214 218 215 212 205 209 216 219 219 222 223 226 226 221 226 226 226 220 209 214 210 212 213 207 205 207 211 204 216 213 210 225 224 221 219 196 203 188 180 184 181 178 189 179 163 165 185 189 181 186 171 181 166 186 175 200 204 209 204 231 245 277 286 335 324 321 33 348 330 335 344 1 8 9 22 23 40 38
204 215 220 216 212 211 214 214 218 216 212 208 209 217 217 216 222 224 225 227 224 223 221 220 210 205 211 213 207 208 201 203 202 203 203 200 206 209 210 222 216 200 184 176 182 183 179 176 171 173 173 159 161 166 167 174 171 172 181 198 218 204 197 195 191 191 204 193 215 231 217 231 256 287 281 325 317 331 344 11 9 16 13 42 36